TimeCDT,TemperatureF,Dew PointF,Humidity,Sea Level PressureIn,VisibilityMPH,Wind Direction,Wind SpeedMPH,Gust SpeedMPH,PrecipitationIn,Events,Conditions,WindDirDegrees,DateUTC
12:15 AM,66.2,59.0,78,29.84,10.0,West,16.1,-,N/A,,Mostly Cloudy,280,2013-10-12 05:15:00
12:35 AM,62.6,50.0,63,29.85,10.0,WNW,10.4,19.6,N/A,,Overcast,290,2013-10-12 05:35:00
12:55 AM,60.8,50.0,68,29.85,10.0,WNW,13.8,-,N/A,,Overcast,290,2013-10-12 05:55:00
1:15 AM,60.8,48.2,63,29.85,10.0,WNW,17.3,24.2,N/A,,Overcast,300,2013-10-12 06:15:00
1:35 AM,59.0,46.4,63,29.87,10.0,WNW,17.3,-,N/A,,Overcast,300,2013-10-12 06:35:00
1:55 AM,57.2,46.4,67,29.88,10.0,WNW,15.0,21.9,N/A,,Overcast,300,2013-10-12 06:55:00
2:15 AM,57.2,46.4,67,29.89,10.0,WNW,12.7,-,N/A,,Mostly Cloudy,300,2013-10-12 07:15:00
2:35 AM,57.2,44.6,63,29.90,10.0,WNW,10.4,18.4,N/A,,Mostly Cloudy,300,2013-10-12 07:35:00
2:55 AM,57.2,44.6,63,29.90,10.0,NW,9.2,-,N/A,,Mostly Cloudy,310,2013-10-12 07:55:00
3:15 AM,57.2,44.6,63,29.90,10.0,NW,9.2,16.1,N/A,,Scattered Clouds,310,2013-10-12 08:15:00
3:35 AM,55.4,44.6,67,29.90,10.0,WNW,9.2,15.0,N/A,,Clear,300,2013-10-12 08:35:00
3:55 AM,55.4,44.6,67,29.91,10.0,WNW,8.1,-,N/A,,Clear,290,2013-10-12 08:55:00
4:15 AM,55.4,44.6,67,29.93,10.0,WNW,6.9,13.8,N/A,,Clear,300,2013-10-12 09:15:00
4:35 AM,53.6,44.6,72,29.93,10.0,WNW,8.1,-,N/A,,Clear,300,2013-10-12 09:35:00
4:55 AM,53.6,44.6,72,29.94,10.0,WNW,9.2,-,N/A,,Clear,290,2013-10-12 09:55:00
5:15 AM,51.8,44.6,76,29.95,10.0,WNW,8.1,13.8,N/A,,Clear,290,2013-10-12 10:15:00
5:35 AM,51.8,44.6,76,29.97,10.0,West,6.9,-,N/A,,Clear,270,2013-10-12 10:35:00
5:55 AM,50.0,42.8,76,29.97,10.0,West,8.1,-,N/A,,Clear,280,2013-10-12 10:55:00
6:15 AM,50.0,42.8,76,29.97,10.0,West,6.9,-,N/A,,Clear,270,2013-10-12 11:15:00
6:35 AM,50.0,42.8,76,29.98,10.0,West,8.1,-,N/A,,Clear,270,2013-10-12 11:35:00
6:55 AM,48.2,42.8,82,29.99,10.0,West,6.9,-,N/A,,Clear,280,2013-10-12 11:55:00
7:15 AM,50.0,42.8,76,30.00,10.0,West,10.4,-,N/A,,Clear,280,2013-10-12 12:15:00
7:35 AM,50.0,42.8,76,30.01,10.0,West,9.2,-,N/A,,Clear,280,2013-10-12 12:35:00
7:55 AM,50.0,42.8,76,30.03,10.0,West,8.1,-,N/A,,Clear,280,2013-10-12 12:55:00
8:15 AM,50.0,42.8,76,30.04,10.0,West,9.2,-,N/A,,Clear,280,2013-10-12 13:15:00
8:35 AM,51.8,42.8,71,30.04,10.0,West,8.1,-,N/A,,Clear,280,2013-10-12 13:35:00
8:55 AM,51.8,41.0,67,30.04,10.0,WNW,11.5,-,N/A,,Clear,290,2013-10-12 13:55:00
9:15 AM,53.6,41.0,62,30.05,10.0,WNW,9.2,-,N/A,,Clear,290,2013-10-12 14:15:00
9:35 AM,53.6,41.0,62,30.06,10.0,WNW,11.5,17.3,N/A,,Clear,290,2013-10-12 14:35:00
9:55 AM,55.4,41.0,58,30.06,10.0,West,9.2,18.4,N/A,,Clear,280,2013-10-12 14:55:00
10:15 AM,57.2,41.0,55,30.07,10.0,WNW,11.5,-,N/A,,Clear,290,2013-10-12 15:15:00
10:35 AM,57.2,41.0,55,30.07,10.0,WNW,11.5,18.4,N/A,,Clear,290,2013-10-12 15:35:00
10:55 AM,59.0,39.2,48,30.08,10.0,West,17.3,-,N/A,,Clear,280,2013-10-12 15:55:00
11:15 AM,59.0,37.4,45,30.08,10.0,WNW,15.0,21.9,N/A,,Clear,290,2013-10-12 16:15:00
11:35 AM,60.8,41.0,48,30.08,10.0,West,13.8,-,N/A,,Clear,280,2013-10-12 16:35:00
11:55 AM,60.8,39.2,45,30.08,10.0,WNW,16.1,24.2,N/A,,Clear,290,2013-10-12 16:55:00
12:15 PM,62.6,39.2,42,30.09,10.0,West,13.8,20.7,N/A,,Clear,270,2013-10-12 17:15:00
12:35 PM,62.6,39.2,42,30.09,10.0,West,13.8,21.9,N/A,,Clear,280,2013-10-12 17:35:00
12:55 PM,62.6,37.4,39,30.09,10.0,WNW,17.3,24.2,N/A,,Clear,290,2013-10-12 17:55:00
1:15 PM,62.6,37.4,39,30.10,10.0,West,16.1,23.0,N/A,,Clear,280,2013-10-12 18:15:00
1:35 PM,64.4,35.6,34,30.09,10.0,WNW,18.4,24.2,N/A,,Clear,300,2013-10-12 18:35:00
1:55 PM,64.4,37.4,37,30.09,10.0,West,17.3,-,N/A,,Clear,270,2013-10-12 18:55:00
2:15 PM,64.4,35.6,34,30.09,10.0,WNW,12.7,20.7,N/A,,Clear,300,2013-10-12 19:15:00
2:35 PM,64.4,33.8,32,30.09,10.0,WNW,15.0,21.9,N/A,,Clear,300,2013-10-12 19:35:00
2:55 PM,64.4,33.8,32,30.10,10.0,WNW,13.8,20.7,N/A,,Clear,300,2013-10-12 19:55:00
3:15 PM,66.2,33.8,30,30.10,10.0,WNW,15.0,21.9,N/A,,Clear,290,2013-10-12 20:15:00
3:35 PM,66.2,33.8,30,30.10,10.0,West,16.1,23.0,N/A,,Clear,280,2013-10-12 20:35:00
3:55 PM,66.2,33.8,30,30.11,10.0,West,11.5,20.7,N/A,,Clear,270,2013-10-12 20:55:00
4:15 PM,66.2,33.8,30,30.11,10.0,West,13.8,-,N/A,,Clear,270,2013-10-12 21:15:00
4:35 PM,64.4,33.8,32,30.12,10.0,WNW,13.8,20.7,N/A,,Clear,290,2013-10-12 21:35:00
4:55 PM,64.4,33.8,32,30.12,10.0,WNW,10.4,-,N/A,,Clear,300,2013-10-12 21:55:00
5:15 PM,64.4,33.8,32,30.12,10.0,West,11.5,-,N/A,,Clear,280,2013-10-12 22:15:00
5:35 PM,64.4,33.8,32,30.13,10.0,West,8.1,16.1,N/A,,Clear,270,2013-10-12 22:35:00
5:55 PM,62.6,33.8,34,30.13,10.0,WSW,5.8,-,N/A,,Clear,250,2013-10-12 22:55:00
6:15 PM,60.8,33.8,36,30.13,10.0,West,6.9,-,N/A,,Clear,260,2013-10-12 23:15:00
6:35 PM,59.0,35.6,42,30.14,10.0,WSW,4.6,-,N/A,,Clear,250,2013-10-12 23:35:00
6:55 PM,57.2,35.6,44,30.14,10.0,WSW,5.8,-,N/A,,Clear,250,2013-10-12 23:55:00
7:15 PM,57.2,35.6,44,30.16,10.0,WSW,5.8,-,N/A,,Clear,240,2013-10-13 00:15:00
7:35 PM,53.6,35.6,51,30.16,10.0,West,3.5,-,N/A,,Clear,270,2013-10-13 00:35:00
7:55 PM,55.4,35.6,47,30.17,10.0,WNW,3.5,-,N/A,,Clear,300,2013-10-13 00:55:00
8:15 PM,53.6,35.6,51,30.17,10.0,WNW,6.9,-,N/A,,Clear,300,2013-10-13 01:15:00
8:35 PM,53.6,35.6,51,30.18,10.0,WNW,4.6,-,N/A,,Clear,300,2013-10-13 01:35:00
8:55 PM,53.6,35.6,51,30.18,10.0,WNW,5.8,-,N/A,,Clear,290,2013-10-13 01:55:00
9:15 PM,51.8,35.6,54,30.19,10.0,West,5.8,-,N/A,,Clear,280,2013-10-13 02:15:00
9:35 PM,50.0,35.6,58,30.21,10.0,WNW,5.8,-,N/A,,Clear,290,2013-10-13 02:35:00
9:55 PM,46.4,37.4,71,30.21,10.0,Calm,Calm,-,N/A,,Clear,0,2013-10-13 02:55:00
10:15 PM,42.8,37.4,81,30.22,10.0,Calm,Calm,-,N/A,,Clear,0,2013-10-13 03:15:00
10:35 PM,42.8,37.4,81,30.23,10.0,Calm,Calm,-,N/A,,Clear,0,2013-10-13 03:35:00
10:55 PM,42.8,39.2,87,30.23,10.0,Calm,Calm,-,N/A,,Clear,0,2013-10-13 03:55:00
11:15 PM,42.8,37.4,81,30.24,10.0,Calm,Calm,-,N/A,,Clear,0,2013-10-13 04:15:00
11:35 PM,44.6,39.2,81,30.25,10.0,WNW,3.5,-,N/A,,Clear,290,2013-10-13 04:35:00
11:55 PM,39.2,37.4,93,30.26,10.0,Calm,Calm,-,N/A,,Clear,0,2013-10-13 04:55:00